Year,Month,Day,Hour,Minute,Value (Times are PST for temperature in C)
2017,08,21,00,00,16.80
2017,08,21,00,01,16.80
2017,08,21,00,02,16.80
2017,08,21,00,03,16.90
2017,08,21,00,04,16.90
2017,08,21,00,05,16.90
2017,08,21,00,06,17.00
2017,08,21,00,07,17.00
2017,08,21,00,08,17.10
2017,08,21,00,09,17.10
2017,08,21,00,10,17.20
2017,08,21,00,11,17.20
2017,08,21,00,12,17.20
2017,08,21,00,13,17.20
2017,08,21,00,14,17.20
2017,08,21,00,15,17.20
2017,08,21,00,16,17.20
2017,08,21,00,17,17.20
2017,08,21,00,18,17.20
2017,08,21,00,19,17.20
2017,08,21,00,20,17.30
2017,08,21,00,21,17.30
2017,08,21,00,22,17.30
2017,08,21,00,23,17.30
2017,08,21,00,24,17.30
2017,08,21,00,25,17.30
2017,08,21,00,26,17.30
2017,08,21,00,27,17.30
2017,08,21,00,28,17.30
2017,08,21,00,29,17.30
2017,08,21,00,30,17.30
2017,08,21,00,31,17.30
2017,08,21,00,32,17.30
2017,08,21,00,33,17.30
2017,08,21,00,34,17.30
2017,08,21,00,35,17.30
2017,08,21,00,36,17.20
2017,08,21,00,37,17.20
2017,08,21,00,38,17.20
2017,08,21,00,39,17.20
2017,08,21,00,40,17.20
2017,08,21,00,41,17.20
2017,08,21,00,42,17.20
2017,08,21,00,43,17.10
2017,08,21,00,44,17.10
2017,08,21,00,45,17.10
2017,08,21,00,46,17.10
2017,08,21,00,47,17.10
2017,08,21,00,48,17.00
2017,08,21,00,49,17.00
2017,08,21,00,50,17.00
2017,08,21,00,51,17.00
2017,08,21,00,52,16.90
2017,08,21,00,53,16.90
2017,08,21,00,54,16.90
2017,08,21,00,55,16.90
2017,08,21,00,56,16.90
2017,08,21,00,57,16.90
2017,08,21,00,58,16.90
2017,08,21,00,59,16.80
2017,08,21,01,00,16.80
2017,08,21,01,01,16.80
2017,08,21,01,02,16.80
2017,08,21,01,03,16.80
2017,08,21,01,04,16.80
2017,08,21,01,05,16.80
2017,08,21,01,06,16.70
2017,08,21,01,07,16.70
2017,08,21,01,08,16.70
2017,08,21,01,09,16.70
2017,08,21,01,10,16.70
2017,08,21,01,11,16.70
2017,08,21,01,12,16.70
2017,08,21,01,13,16.70
2017,08,21,01,14,16.70
2017,08,21,01,15,16.70
2017,08,21,01,16,16.70
2017,08,21,01,17,16.60
2017,08,21,01,18,16.60
2017,08,21,01,19,16.60
2017,08,21,01,20,16.60
2017,08,21,01,21,16.60
2017,08,21,01,22,16.60
2017,08,21,01,23,16.60
2017,08,21,01,24,16.60
2017,08,21,01,25,16.60
2017,08,21,01,26,16.60
2017,08,21,01,27,16.60
2017,08,21,01,28,16.60
2017,08,21,01,29,16.60
2017,08,21,01,30,16.60
2017,08,21,01,31,16.60
2017,08,21,01,32,16.60
2017,08,21,01,33,16.60
2017,08,21,01,34,16.60
2017,08,21,01,35,16.50
2017,08,21,01,36,16.50
2017,08,21,01,37,16.50
2017,08,21,01,38,16.50
2017,08,21,01,39,16.50
2017,08,21,01,40,16.50
2017,08,21,01,41,16.40
2017,08,21,01,42,16.40
2017,08,21,01,43,16.40
2017,08,21,01,44,16.40
2017,08,21,01,45,16.30
2017,08,21,01,46,16.30
2017,08,21,01,47,16.30
2017,08,21,01,48,16.30
2017,08,21,01,49,16.30
2017,08,21,01,50,16.20
2017,08,21,01,51,16.20
2017,08,21,01,52,16.20
2017,08,21,01,53,16.20
2017,08,21,01,54,16.20
2017,08,21,01,55,16.10
2017,08,21,01,56,16.10
2017,08,21,01,57,16.10
2017,08,21,01,58,16.10
2017,08,21,01,59,16.10
2017,08,21,02,00,16.10
2017,08,21,02,01,16.10
2017,08,21,02,02,16.00
2017,08,21,02,03,16.00
2017,08,21,02,04,16.00
2017,08,21,02,05,16.00
2017,08,21,02,06,16.00
2017,08,21,02,07,15.90
2017,08,21,02,08,15.90
2017,08,21,02,09,15.90
2017,08,21,02,10,15.90
2017,08,21,02,11,15.80
2017,08,21,02,12,15.80
2017,08,21,02,13,15.80
2017,08,21,02,14,15.70
2017,08,21,02,15,15.70
2017,08,21,02,16,15.70
2017,08,21,02,17,15.70
2017,08,21,02,18,15.70
2017,08,21,02,19,15.70
2017,08,21,02,20,15.70
2017,08,21,02,21,15.70
2017,08,21,02,22,15.80
2017,08,21,02,23,15.80
2017,08,21,02,24,15.90
2017,08,21,02,25,15.90
2017,08,21,02,26,15.90
2017,08,21,02,27,16.00
2017,08,21,02,28,16.00
2017,08,21,02,29,16.00
2017,08,21,02,30,16.10
2017,08,21,02,31,16.10
2017,08,21,02,32,16.10
2017,08,21,02,33,16.10
2017,08,21,02,34,16.10
2017,08,21,02,35,16.10
2017,08,21,02,36,16.10
2017,08,21,02,37,16.10
2017,08,21,02,38,16.10
2017,08,21,02,39,16.10
2017,08,21,02,40,16.10
2017,08,21,02,41,16.00
2017,08,21,02,42,16.00
2017,08,21,02,43,16.00
2017,08,21,02,44,16.00
2017,08,21,02,45,16.00
2017,08,21,02,46,16.00
2017,08,21,02,47,16.10
2017,08,21,02,48,16.00
2017,08,21,02,49,16.00
2017,08,21,02,50,16.00
2017,08,21,02,51,16.00
2017,08,21,02,52,16.00
2017,08,21,02,53,16.00
2017,08,21,02,54,16.00
2017,08,21,02,55,15.90
2017,08,21,02,56,15.90
2017,08,21,02,57,15.90
2017,08,21,02,58,15.90
2017,08,21,02,59,15.90
2017,08,21,03,00,15.90
2017,08,21,03,01,15.90
2017,08,21,03,02,15.90
2017,08,21,03,03,15.90
2017,08,21,03,04,15.80
2017,08,21,03,05,15.80
2017,08,21,03,06,15.80
2017,08,21,03,07,15.80
2017,08,21,03,08,15.80
2017,08,21,03,09,15.80
2017,08,21,03,10,15.80
2017,08,21,03,11,15.80
2017,08,21,03,12,15.70
2017,08,21,03,13,15.70
2017,08,21,03,14,15.70
2017,08,21,03,15,15.70
2017,08,21,03,16,15.70
2017,08,21,03,17,15.70
2017,08,21,03,18,15.70
2017,08,21,03,19,15.70
2017,08,21,03,20,15.70
2017,08,21,03,21,15.60
2017,08,21,03,22,15.50
2017,08,21,03,23,15.40
2017,08,21,03,24,15.40
2017,08,21,03,25,15.40
2017,08,21,03,26,15.40
2017,08,21,03,27,15.30
2017,08,21,03,28,15.30
2017,08,21,03,29,15.30
2017,08,21,03,30,15.30
2017,08,21,03,31,15.20
2017,08,21,03,32,15.20
2017,08,21,03,33,15.20
2017,08,21,03,34,15.20
2017,08,21,03,35,15.20
2017,08,21,03,36,15.20
2017,08,21,03,37,15.20
2017,08,21,03,38,15.10
2017,08,21,03,39,15.10
2017,08,21,03,40,15.10
2017,08,21,03,41,15.10
2017,08,21,03,42,15.10
2017,08,21,03,43,15.10
2017,08,21,03,44,15.10
2017,08,21,03,45,15.10
2017,08,21,03,46,15.00
2017,08,21,03,47,15.00
2017,08,21,03,48,15.00
2017,08,21,03,49,15.00
2017,08,21,03,50,15.00
2017,08,21,03,51,15.00
2017,08,21,03,52,14.90
2017,08,21,03,53,14.90
2017,08,21,03,54,14.90
2017,08,21,03,55,14.90
2017,08,21,03,56,14.90
2017,08,21,03,57,14.90
2017,08,21,03,58,14.90
2017,08,21,03,59,14.90
2017,08,21,04,00,15.00
2017,08,21,04,01,15.00
2017,08,21,04,02,15.00
2017,08,21,04,03,15.00
2017,08,21,04,04,14.90
2017,08,21,04,05,14.90
2017,08,21,04,06,14.90
2017,08,21,04,07,15.00
2017,08,21,04,08,15.00
2017,08,21,04,09,15.00
2017,08,21,04,10,15.00
2017,08,21,04,11,15.00
2017,08,21,04,12,15.00
2017,08,21,04,13,15.10
2017,08,21,04,14,15.10
2017,08,21,04,15,15.10
2017,08,21,04,16,15.10
2017,08,21,04,17,15.10
2017,08,21,04,18,15.10
2017,08,21,04,19,15.10
2017,08,21,04,20,15.10
2017,08,21,04,21,15.10
2017,08,21,04,22,15.10
2017,08,21,04,23,15.10
2017,08,21,04,24,15.10
2017,08,21,04,25,15.10
2017,08,21,04,26,15.10
2017,08,21,04,27,15.10
2017,08,21,04,28,15.10
2017,08,21,04,29,15.10
2017,08,21,04,30,15.10
2017,08,21,04,31,15.10
2017,08,21,04,32,15.10
2017,08,21,04,33,15.10
2017,08,21,04,34,15.10
2017,08,21,04,35,15.10
2017,08,21,04,36,15.10
2017,08,21,04,37,15.10
2017,08,21,04,38,15.10
2017,08,21,04,39,15.10
2017,08,21,04,40,15.10
2017,08,21,04,41,15.10
2017,08,21,04,42,15.10
2017,08,21,04,43,15.10
2017,08,21,04,44,15.10
2017,08,21,04,45,15.10
2017,08,21,04,46,15.10
2017,08,21,04,47,15.10
2017,08,21,04,48,15.10
2017,08,21,04,49,15.10
2017,08,21,04,50,15.10
2017,08,21,04,51,15.10
2017,08,21,04,52,15.10
2017,08,21,04,53,15.10
2017,08,21,04,54,15.00
2017,08,21,04,55,15.00
2017,08,21,04,56,15.00
2017,08,21,04,57,15.00
2017,08,21,04,58,15.00
2017,08,21,04,59,15.00
2017,08,21,05,00,15.00
2017,08,21,05,01,15.00
2017,08,21,05,02,15.00
2017,08,21,05,03,15.00
2017,08,21,05,04,15.00
2017,08,21,05,05,15.00
2017,08,21,05,06,15.00
2017,08,21,05,07,15.00
2017,08,21,05,08,15.00
2017,08,21,05,09,15.00
2017,08,21,05,10,15.00
2017,08,21,05,11,15.00
2017,08,21,05,12,15.00
2017,08,21,05,13,15.00
2017,08,21,05,14,15.00
2017,08,21,05,15,15.00
2017,08,21,05,16,15.00
2017,08,21,05,17,15.00
2017,08,21,05,18,15.00
2017,08,21,05,19,15.00
2017,08,21,05,20,14.90
2017,08,21,05,21,14.90
2017,08,21,05,22,14.90
2017,08,21,05,23,14.90
2017,08,21,05,24,14.90
2017,08,21,05,25,14.90
2017,08,21,05,26,14.90
2017,08,21,05,27,14.90
2017,08,21,05,28,14.90
2017,08,21,05,29,14.80
2017,08,21,05,30,14.80
2017,08,21,05,31,14.80
2017,08,21,05,32,14.80
2017,08,21,05,33,14.80
2017,08,21,05,34,14.80
2017,08,21,05,35,14.80
2017,08,21,05,36,14.80
2017,08,21,05,37,14.80
2017,08,21,05,38,14.70
2017,08,21,05,39,14.70
2017,08,21,05,40,14.70
2017,08,21,05,41,14.70
2017,08,21,05,42,14.70
2017,08,21,05,43,14.70
2017,08,21,05,44,14.70
2017,08,21,05,45,14.70
2017,08,21,05,46,14.70
2017,08,21,05,47,14.70
2017,08,21,05,48,14.70
2017,08,21,05,49,14.70
2017,08,21,05,50,14.70
2017,08,21,05,51,14.70
2017,08,21,05,52,14.70
2017,08,21,05,53,14.70
2017,08,21,05,54,14.70
2017,08,21,05,55,14.70
2017,08,21,05,56,14.70
2017,08,21,05,57,14.70
2017,08,21,05,58,14.70
2017,08,21,05,59,14.70
2017,08,21,06,00,14.70
2017,08,21,06,01,14.60
2017,08,21,06,02,14.70
2017,08,21,06,03,14.60
2017,08,21,06,04,14.70
2017,08,21,06,05,14.70
2017,08,21,06,06,14.60
2017,08,21,06,07,14.70
2017,08,21,06,08,14.70
2017,08,21,06,09,14.70
2017,08,21,06,10,14.70
2017,08,21,06,11,14.70
2017,08,21,06,12,14.70
2017,08,21,06,13,14.70
2017,08,21,06,14,14.70
2017,08,21,06,15,14.70
2017,08,21,06,16,14.70
2017,08,21,06,17,14.70
2017,08,21,06,18,14.70
2017,08,21,06,19,14.60
2017,08,21,06,20,14.60
2017,08,21,06,21,14.60
2017,08,21,06,22,14.60
2017,08,21,06,23,14.60
2017,08,21,06,24,14.60
2017,08,21,06,25,14.60
2017,08,21,06,26,14.60
2017,08,21,06,27,14.60
2017,08,21,06,28,14.60
2017,08,21,06,29,14.60
2017,08,21,06,30,14.60
2017,08,21,06,31,14.50
2017,08,21,06,32,14.50
2017,08,21,06,33,14.50
2017,08,21,06,34,14.50
2017,08,21,06,35,14.50
2017,08,21,06,36,14.50
2017,08,21,06,37,14.50
2017,08,21,06,38,14.50
2017,08,21,06,39,14.60
2017,08,21,06,40,14.60
2017,08,21,06,41,14.60
2017,08,21,06,42,14.60
2017,08,21,06,43,14.60
2017,08,21,06,44,14.60
2017,08,21,06,45,14.60
2017,08,21,06,46,14.60
2017,08,21,06,47,14.60
2017,08,21,06,48,14.60
2017,08,21,06,49,14.60
2017,08,21,06,50,14.60
2017,08,21,06,51,14.60
2017,08,21,06,52,14.60
2017,08,21,06,53,14.60
2017,08,21,06,54,14.60
2017,08,21,06,55,14.60
2017,08,21,06,56,14.50
2017,08,21,06,57,14.50
2017,08,21,06,58,14.50
2017,08,21,06,59,14.50
2017,08,21,07,00,14.50
2017,08,21,07,01,14.50
2017,08,21,07,02,14.50
2017,08,21,07,03,14.50
2017,08,21,07,04,14.50
2017,08,21,07,05,14.50
2017,08,21,07,06,14.50
2017,08,21,07,07,14.50
2017,08,21,07,08,14.50
2017,08,21,07,09,14.50
2017,08,21,07,10,14.50
2017,08,21,07,11,14.50
2017,08,21,07,12,14.50
2017,08,21,07,13,14.50
2017,08,21,07,14,14.50
2017,08,21,07,15,14.50
2017,08,21,07,16,14.50
2017,08,21,07,17,14.50
2017,08,21,07,18,14.50
2017,08,21,07,19,14.50
2017,08,21,07,20,14.50
2017,08,21,07,21,14.50
2017,08,21,07,22,14.50
2017,08,21,07,23,14.50
2017,08,21,07,24,14.50
2017,08,21,07,25,14.50
2017,08,21,07,26,14.50
2017,08,21,07,27,14.50
2017,08,21,07,28,14.50
2017,08,21,07,29,14.50
2017,08,21,07,30,14.50
2017,08,21,07,31,14.50
2017,08,21,07,32,14.50
2017,08,21,07,33,14.50
2017,08,21,07,34,14.50
2017,08,21,07,35,14.50
2017,08,21,07,36,14.50
2017,08,21,07,37,14.50
2017,08,21,07,38,14.50
2017,08,21,07,39,14.50
2017,08,21,07,40,14.60
2017,08,21,07,41,14.60
2017,08,21,07,42,14.60
2017,08,21,07,43,14.60
2017,08,21,07,44,14.70
2017,08,21,07,45,14.70
2017,08,21,07,46,14.70
2017,08,21,07,47,14.70
2017,08,21,07,48,14.80
2017,08,21,07,49,14.80
2017,08,21,07,50,14.80
2017,08,21,07,51,14.80
2017,08,21,07,52,14.80
2017,08,21,07,53,14.80
2017,08,21,07,54,14.90
2017,08,21,07,55,14.90
2017,08,21,07,56,14.90
2017,08,21,07,57,14.90
2017,08,21,07,58,15.00
2017,08,21,07,59,15.00
2017,08,21,08,00,15.00
2017,08,21,08,01,15.10
2017,08,21,08,02,15.10
2017,08,21,08,03,15.10
2017,08,21,08,04,15.10
2017,08,21,08,05,15.10
2017,08,21,08,06,15.20
2017,08,21,08,07,15.20
2017,08,21,08,08,15.20
2017,08,21,08,09,15.20
2017,08,21,08,10,15.20
2017,08,21,08,11,15.20
2017,08,21,08,12,15.20
2017,08,21,08,13,15.30
2017,08,21,08,14,15.30
2017,08,21,08,15,15.30
2017,08,21,08,16,15.30
2017,08,21,08,17,15.30
2017,08,21,08,18,15.30
2017,08,21,08,19,15.30
2017,08,21,08,20,15.30
2017,08,21,08,21,15.30
2017,08,21,08,22,15.40
2017,08,21,08,23,15.40
2017,08,21,08,24,15.40
2017,08,21,08,25,15.50
2017,08,21,08,26,15.50
2017,08,21,08,27,15.60
2017,08,21,08,28,15.60
2017,08,21,08,29,15.60
2017,08,21,08,30,15.60
2017,08,21,08,31,15.70
2017,08,21,08,32,15.70
2017,08,21,08,33,15.70
2017,08,21,08,34,15.80
2017,08,21,08,35,15.80
2017,08,21,08,36,15.80
2017,08,21,08,37,15.80
2017,08,21,08,38,15.80
2017,08,21,08,39,15.80
2017,08,21,08,40,15.80
2017,08,21,08,41,15.90
2017,08,21,08,42,15.90
2017,08,21,08,43,15.90
2017,08,21,08,44,16.00
2017,08,21,08,45,16.00
2017,08,21,08,46,16.10
2017,08,21,08,47,16.20
2017,08,21,08,48,16.30
2017,08,21,08,49,16.30
2017,08,21,08,50,16.40
2017,08,21,08,51,16.40
2017,08,21,08,52,16.50
2017,08,21,08,53,16.50
2017,08,21,08,54,16.60
2017,08,21,08,55,16.60
2017,08,21,08,56,16.60
2017,08,21,08,57,16.70
2017,08,21,08,58,16.70
2017,08,21,08,59,16.70
2017,08,21,09,00,16.80
2017,08,21,09,01,16.80
2017,08,21,09,02,16.90
2017,08,21,09,03,16.90
2017,08,21,09,04,17.00
2017,08,21,09,05,17.00
2017,08,21,09,06,17.10
2017,08,21,09,07,17.20
2017,08,21,09,08,17.20
2017,08,21,09,09,17.30
2017,08,21,09,10,17.30
2017,08,21,09,11,17.40
2017,08,21,09,12,17.40
2017,08,21,09,13,17.40
2017,08,21,09,14,17.50
2017,08,21,09,15,17.60
2017,08,21,09,16,17.60
2017,08,21,09,17,17.70
2017,08,21,09,18,17.70
2017,08,21,09,19,17.80
2017,08,21,09,20,17.80
2017,08,21,09,21,17.80
2017,08,21,09,22,17.80
2017,08,21,09,23,17.80
2017,08,21,09,24,17.80
2017,08,21,09,25,17.80
2017,08,21,09,26,17.80
2017,08,21,09,27,17.80
2017,08,21,09,28,17.80
2017,08,21,09,29,17.70
2017,08,21,09,30,17.70
2017,08,21,09,31,17.70
2017,08,21,09,32,17.70
2017,08,21,09,33,17.70
2017,08,21,09,34,17.60
2017,08,21,09,35,17.60
2017,08,21,09,36,17.60
2017,08,21,09,37,17.60
2017,08,21,09,38,17.60
2017,08,21,09,39,17.60
2017,08,21,09,40,17.50
2017,08,21,09,41,17.50
2017,08,21,09,42,17.50
2017,08,21,09,43,17.50
2017,08,21,09,44,17.40
2017,08,21,09,45,17.40
2017,08,21,09,46,17.40
2017,08,21,09,47,17.40
2017,08,21,09,48,17.40
2017,08,21,09,49,17.40
2017,08,21,09,50,17.40
2017,08,21,09,51,17.40
2017,08,21,09,52,17.40
2017,08,21,09,53,17.40
2017,08,21,09,54,17.40
2017,08,21,09,55,17.40
2017,08,21,09,56,17.50
2017,08,21,09,57,17.50
2017,08,21,09,58,17.50
2017,08,21,09,59,17.60
2017,08,21,10,00,17.60
2017,08,21,10,01,17.60
2017,08,21,10,02,17.60
2017,08,21,10,03,17.60
2017,08,21,10,04,17.60
2017,08,21,10,05,17.60
2017,08,21,10,06,17.70
2017,08,21,10,07,17.70
2017,08,21,10,08,17.70
2017,08,21,10,09,17.70
2017,08,21,10,10,17.70
2017,08,21,10,11,17.70
2017,08,21,10,12,17.70
2017,08,21,10,13,17.70
2017,08,21,10,14,17.70
2017,08,21,10,15,17.70
2017,08,21,10,16,17.70
2017,08,21,10,17,17.70
2017,08,21,10,18,17.70
2017,08,21,10,19,17.70
2017,08,21,10,20,17.70
2017,08,21,10,21,17.70
2017,08,21,10,22,17.60
2017,08,21,10,23,17.60
2017,08,21,10,24,17.60
2017,08,21,10,25,17.50
2017,08,21,10,26,17.50
2017,08,21,10,27,17.40
2017,08,21,10,28,17.40
2017,08,21,10,29,17.30
2017,08,21,10,30,17.30
2017,08,21,10,31,17.30
2017,08,21,10,32,17.20
2017,08,21,10,33,17.20
2017,08,21,10,34,17.20
2017,08,21,10,35,17.20
2017,08,21,10,36,17.20
2017,08,21,10,37,17.20
2017,08,21,10,38,17.20
2017,08,21,10,39,17.20
2017,08,21,10,40,17.20
2017,08,21,10,41,17.20
2017,08,21,10,42,17.20
2017,08,21,10,43,17.20
2017,08,21,10,44,17.20
2017,08,21,10,45,17.20
2017,08,21,10,46,17.30
2017,08,21,10,47,17.30
2017,08,21,10,48,17.30
2017,08,21,10,49,17.30
2017,08,21,10,50,17.40
2017,08,21,10,51,17.40
2017,08,21,10,52,17.40
2017,08,21,10,53,17.40
2017,08,21,10,54,17.50
2017,08,21,10,55,17.50
2017,08,21,10,56,17.60
2017,08,21,10,57,17.60
2017,08,21,10,58,17.60
2017,08,21,10,59,17.70
2017,08,21,11,00,17.70
2017,08,21,11,01,17.80
2017,08,21,11,02,17.80
2017,08,21,11,03,17.80
2017,08,21,11,04,17.90
2017,08,21,11,05,17.90
2017,08,21,11,06,17.90
2017,08,21,11,07,17.90
2017,08,21,11,08,18.00
2017,08,21,11,09,18.00
2017,08,21,11,10,18.00
2017,08,21,11,11,18.10
2017,08,21,11,12,18.10
2017,08,21,11,13,18.10
2017,08,21,11,14,18.20
2017,08,21,11,15,18.20
2017,08,21,11,16,18.30
2017,08,21,11,17,18.30
2017,08,21,11,18,18.40
2017,08,21,11,19,18.40
2017,08,21,11,20,18.50
2017,08,21,11,21,18.50
2017,08,21,11,22,18.60
2017,08,21,11,23,18.60
2017,08,21,11,24,18.70
2017,08,21,11,25,18.70
2017,08,21,11,26,18.80
2017,08,21,11,27,18.80
2017,08,21,11,28,18.90
2017,08,21,11,29,18.90
2017,08,21,11,30,19.00
2017,08,21,11,31,19.10
2017,08,21,11,32,19.10
2017,08,21,11,33,19.20
2017,08,21,11,34,19.30
2017,08,21,11,35,19.30
2017,08,21,11,36,19.40
2017,08,21,11,37,19.50
2017,08,21,11,38,19.60
2017,08,21,11,39,19.60
2017,08,21,11,40,19.60
2017,08,21,11,41,19.50
2017,08,21,11,42,19.50
2017,08,21,11,43,19.40
2017,08,21,11,44,19.40
2017,08,21,11,45,19.30
2017,08,21,11,46,19.30
2017,08,21,11,47,19.30
2017,08,21,11,48,19.30
2017,08,21,11,49,19.20
2017,08,21,11,50,19.20
2017,08,21,11,51,19.20
2017,08,21,11,52,19.20
2017,08,21,11,53,19.30
2017,08,21,11,54,19.40
2017,08,21,11,55,19.50
2017,08,21,11,56,19.60
2017,08,21,11,57,19.70
2017,08,21,11,58,19.70
2017,08,21,11,59,19.80
2017,08,21,12,00,19.90
2017,08,21,12,01,20.00
2017,08,21,12,02,20.10
2017,08,21,12,03,20.20
2017,08,21,12,04,20.30
2017,08,21,12,05,20.30
2017,08,21,12,06,20.40
2017,08,21,12,07,20.40
2017,08,21,12,08,20.40
2017,08,21,12,09,20.50
2017,08,21,12,10,20.60
2017,08,21,12,11,20.60
2017,08,21,12,12,20.70
2017,08,21,12,13,20.80
2017,08,21,12,14,20.80
2017,08,21,12,15,20.80
2017,08,21,12,16,20.80
2017,08,21,12,17,20.80
2017,08,21,12,18,20.90
2017,08,21,12,19,20.90
2017,08,21,12,20,20.90
2017,08,21,12,21,20.90
2017,08,21,12,22,20.90
2017,08,21,12,23,21.00
2017,08,21,12,24,21.10
2017,08,21,12,25,21.10
2017,08,21,12,26,21.20
2017,08,21,12,27,21.20
2017,08,21,12,28,21.20
2017,08,21,12,29,21.20
2017,08,21,12,30,21.20
2017,08,21,12,31,21.20
2017,08,21,12,32,21.20
2017,08,21,12,33,21.30
2017,08,21,12,34,21.30
2017,08,21,12,35,21.30
2017,08,21,12,36,21.30
2017,08,21,12,37,21.40
2017,08,21,12,38,21.40
2017,08,21,12,39,21.50
2017,08,21,12,40,21.60
2017,08,21,12,41,21.70
2017,08,21,12,42,21.70
2017,08,21,12,43,21.80
2017,08,21,12,44,21.80
2017,08,21,12,45,21.80
2017,08,21,12,46,21.90
2017,08,21,12,47,21.90
2017,08,21,12,48,21.90
2017,08,21,12,49,21.90
2017,08,21,12,50,21.90
2017,08,21,12,51,22.00
2017,08,21,12,52,22.00
2017,08,21,12,53,22.00
2017,08,21,12,54,22.10
2017,08,21,12,55,22.10
2017,08,21,12,56,22.20
2017,08,21,12,57,22.30
2017,08,21,12,58,22.30
2017,08,21,12,59,22.40
2017,08,21,13,00,22.50
2017,08,21,13,01,22.50
2017,08,21,13,02,22.60
2017,08,21,13,03,22.60
2017,08,21,13,04,22.60
2017,08,21,13,05,22.60
2017,08,21,13,06,22.60
2017,08,21,13,07,22.60
2017,08,21,13,08,22.60
2017,08,21,13,09,22.60
2017,08,21,13,10,22.60
2017,08,21,13,11,22.60
2017,08,21,13,12,22.70
2017,08,21,13,13,22.70
2017,08,21,13,14,22.70
2017,08,21,13,15,22.60
2017,08,21,13,16,22.60
2017,08,21,13,17,22.50
2017,08,21,13,18,22.50
2017,08,21,13,19,22.40
2017,08,21,13,20,22.30
2017,08,21,13,21,22.30
2017,08,21,13,22,22.40
2017,08,21,13,23,22.40
2017,08,21,13,24,22.50
2017,08,21,13,25,22.50
2017,08,21,13,26,22.60
2017,08,21,13,27,22.50
2017,08,21,13,28,22.50
2017,08,21,13,29,22.60
2017,08,21,13,30,22.60
2017,08,21,13,31,22.70
2017,08,21,13,32,22.80
2017,08,21,13,33,22.90
2017,08,21,13,34,23.00
2017,08,21,13,35,23.10
2017,08,21,13,36,23.10
2017,08,21,13,37,23.20
2017,08,21,13,38,23.20
2017,08,21,13,39,23.20
2017,08,21,13,40,23.30
2017,08,21,13,41,23.30
2017,08,21,13,42,23.30
2017,08,21,13,43,23.30
2017,08,21,13,44,23.30
2017,08,21,13,45,23.30
2017,08,21,13,46,23.30
2017,08,21,13,47,23.30
2017,08,21,13,48,23.30
2017,08,21,13,49,23.40
2017,08,21,13,50,23.50
2017,08,21,13,51,23.60
2017,08,21,13,52,23.70
2017,08,21,13,53,23.80
2017,08,21,13,54,23.90
2017,08,21,13,55,23.90
2017,08,21,13,56,23.90
2017,08,21,13,57,24.00
2017,08,21,13,58,24.00
2017,08,21,13,59,24.10
2017,08,21,14,00,24.10
2017,08,21,14,01,24.10
2017,08,21,14,02,24.10
2017,08,21,14,03,24.10
2017,08,21,14,04,24.10
2017,08,21,14,05,24.20
2017,08,21,14,06,24.30
2017,08,21,14,07,24.30
2017,08,21,14,08,24.30
2017,08,21,14,09,24.30
2017,08,21,14,10,24.20
2017,08,21,14,11,24.20
2017,08,21,14,12,24.20
2017,08,21,14,13,24.20
2017,08,21,14,14,24.30
2017,08,21,14,15,24.30
2017,08,21,14,16,24.30
2017,08,21,14,17,24.30
2017,08,21,14,18,24.30
2017,08,21,14,19,24.30
2017,08,21,14,20,24.30
2017,08,21,14,21,24.40
2017,08,21,14,22,24.40
2017,08,21,14,23,24.40
2017,08,21,14,24,24.50
2017,08,21,14,25,24.50
2017,08,21,14,26,24.50
2017,08,21,14,27,24.60
2017,08,21,14,28,24.60
2017,08,21,14,29,24.60
2017,08,21,14,30,24.50
2017,08,21,14,31,24.40
2017,08,21,14,32,24.40
2017,08,21,14,33,24.40
2017,08,21,14,34,24.40
2017,08,21,14,35,24.50
2017,08,21,14,36,24.60
2017,08,21,14,37,24.60
2017,08,21,14,38,24.70
2017,08,21,14,39,24.70
2017,08,21,14,40,24.80
2017,08,21,14,41,24.80
2017,08,21,14,42,24.70
2017,08,21,14,43,24.70
2017,08,21,14,44,24.70
2017,08,21,14,45,24.70
2017,08,21,14,46,24.70
2017,08,21,14,47,24.80
2017,08,21,14,48,24.90
2017,08,21,14,49,24.90
2017,08,21,14,50,25.00
2017,08,21,14,51,25.10
2017,08,21,14,52,25.10
2017,08,21,14,53,25.20
2017,08,21,14,54,25.30
2017,08,21,14,55,25.30
2017,08,21,14,56,25.40
2017,08,21,14,57,25.50
2017,08,21,14,58,25.60
2017,08,21,14,59,25.70
2017,08,21,15,00,25.70
2017,08,21,15,01,25.70
2017,08,21,15,02,25.60
2017,08,21,15,03,25.50
2017,08,21,15,04,25.50
2017,08,21,15,05,25.40
2017,08,21,15,06,25.40
2017,08,21,15,07,25.40
2017,08,21,15,08,25.50
2017,08,21,15,09,25.60
2017,08,21,15,10,25.60
2017,08,21,15,11,25.60
2017,08,21,15,12,25.60
2017,08,21,15,13,25.60
2017,08,21,15,14,25.60
2017,08,21,15,15,25.60
2017,08,21,15,16,25.70
2017,08,21,15,17,25.70
2017,08,21,15,18,25.70
2017,08,21,15,19,25.70
2017,08,21,15,20,25.60
2017,08,21,15,21,25.60
2017,08,21,15,22,25.60
2017,08,21,15,23,25.70
2017,08,21,15,24,25.70
2017,08,21,15,25,25.80
2017,08,21,15,26,25.80
2017,08,21,15,27,25.80
2017,08,21,15,28,25.70
2017,08,21,15,29,25.70
2017,08,21,15,30,25.70
2017,08,21,15,31,25.70
2017,08,21,15,32,25.70
2017,08,21,15,33,25.70
2017,08,21,15,34,25.80
2017,08,21,15,35,25.90
2017,08,21,15,36,26.00
2017,08,21,15,37,26.00
2017,08,21,15,38,26.10
2017,08,21,15,39,26.20
2017,08,21,15,40,26.20
2017,08,21,15,41,26.20
2017,08,21,15,42,26.20
2017,08,21,15,43,26.20
2017,08,21,15,44,26.30
2017,08,21,15,45,26.30
2017,08,21,15,46,26.30
2017,08,21,15,47,26.30
2017,08,21,15,48,26.30
2017,08,21,15,49,26.30
2017,08,21,15,50,26.30
2017,08,21,15,51,26.30
2017,08,21,15,52,26.30
2017,08,21,15,53,26.30
2017,08,21,15,54,26.30
2017,08,21,15,55,26.30
2017,08,21,15,56,26.30
2017,08,21,15,57,26.40
2017,08,21,15,58,26.40
2017,08,21,15,59,26.40
2017,08,21,16,00,26.50
2017,08,21,16,01,26.60
2017,08,21,16,02,26.70
2017,08,21,16,03,26.80
2017,08,21,16,04,26.90
2017,08,21,16,05,27.00
2017,08,21,16,06,27.10
2017,08,21,16,07,27.20
2017,08,21,16,08,27.30
2017,08,21,16,09,27.20
2017,08,21,16,10,27.20
2017,08,21,16,11,27.10
2017,08,21,16,12,27.10
2017,08,21,16,13,27.00
2017,08,21,16,14,27.00
2017,08,21,16,15,27.00
2017,08,21,16,16,26.90
2017,08,21,16,17,26.80
2017,08,21,16,18,26.80
2017,08,21,16,19,26.80
2017,08,21,16,20,26.80
2017,08,21,16,21,26.80
2017,08,21,16,22,26.80
2017,08,21,16,23,26.80
2017,08,21,16,24,26.70
2017,08,21,16,25,26.70
2017,08,21,16,26,26.60
2017,08,21,16,27,26.70
2017,08,21,16,28,26.70
2017,08,21,16,29,26.70
2017,08,21,16,30,26.70
2017,08,21,16,31,26.70
2017,08,21,16,32,26.70
2017,08,21,16,33,26.70
2017,08,21,16,34,26.70
2017,08,21,16,35,26.70
2017,08,21,16,36,26.70
2017,08,21,16,37,26.80
2017,08,21,16,38,26.80
2017,08,21,16,39,26.80
2017,08,21,16,40,26.70
2017,08,21,16,41,26.70
2017,08,21,16,42,26.70
2017,08,21,16,43,26.60
2017,08,21,16,44,26.60
2017,08,21,16,45,26.60
2017,08,21,16,46,26.60
2017,08,21,16,47,26.60
2017,08,21,16,48,26.60
2017,08,21,16,49,26.60
2017,08,21,16,50,26.60
2017,08,21,16,51,26.50
2017,08,21,16,52,26.60
2017,08,21,16,53,26.60
2017,08,21,16,54,26.70
2017,08,21,16,55,26.70
2017,08,21,16,56,26.70
2017,08,21,16,57,26.70
2017,08,21,16,58,26.70
2017,08,21,16,59,26.70
2017,08,21,17,00,26.80
2017,08,21,17,01,26.80
2017,08,21,17,02,26.80
2017,08,21,17,03,26.80
2017,08,21,17,04,26.80
2017,08,21,17,05,26.90
2017,08,21,17,06,26.90
2017,08,21,17,07,26.90
2017,08,21,17,08,26.90
2017,08,21,17,09,26.90
2017,08,21,17,10,27.00
2017,08,21,17,11,27.00
2017,08,21,17,12,27.00
2017,08,21,17,13,27.10
2017,08,21,17,14,27.10
2017,08,21,17,15,27.20
2017,08,21,17,16,27.20
2017,08,21,17,17,27.20
2017,08,21,17,18,27.20
2017,08,21,17,19,27.20